Location: Unspecified
(56.5167°N, 0.0000°E)
Time: 23:47:42
(UTC+02:00)

Cosmos 1674 - Visible Passes

Search period start: 23 April 2017 00:00
Search period end: 03 May 2017 00:00
Orbit: 499 x 522 km, 82.5° (Epoch: 22 April)

Date Brightness Start Highest point End Pass type
(mag) Time Alt. Az. Time Alt. Az. Time Alt. Az.
30 Apr 5.4 05:27:12 10° SE 05:30:05 20° E 05:32:59 10° NE visible
01 May 5.5 05:11:05 10° SE 05:13:39 17° E 05:16:14 10° NE visible
02 May 5.6 04:55:02 10° ESE 04:57:13 15° E 04:59:25 10° NE visible
